• In Kazakhstan
  • List of Countries
  • For 7 days
  • Water Temperature
  • Satellite Maps
  • Weather Map
  • News
  • Weather Widgets
  • user-avatar
    Login

    Hourly Weather Mendoza

    Today, 18 July, Thursday

    Time Temperature Precipitation Wind Pressure Humidity
    00:00 +13°C° 0 mm 4 mps 698 mmHg 50%
    01:00 +13°C° 0 mm 5 mps 698 mmHg 52%
    02:00 +10°C° 0 mm 5 mps 698 mmHg 55%
    03:00 +9°C° 0 mm 6 mps 699 mmHg 58%
    04:00 +8°C° 0 mm 6 mps 699 mmHg 61%
    05:00 +8°C° 0 mm 5 mps 700 mmHg 60%
    06:00 +8°C° 0 mm 5 mps 701 mmHg 59%
    07:00 +8°C° 0 mm 4 mps 702 mmHg 58%
    08:00 +9°C° 0 mm 3 mps 702 mmHg 52%
    09:00 +10°C° 0 mm 3 mps 703 mmHg 47%
    10:00 +10°C° 0 mm 2 mps 703 mmHg 41%
    11:00 +11°C° 0 mm 3 mps 703 mmHg 38%
    12:00 +11°C° 0 mm 3 mps 702 mmHg 34%
    13:00 +12°C° 0 mm 4 mps 702 mmHg 31%
    14:00 +12°C° 0 mm 4 mps 702 mmHg 32%
    15:00 +11°C° 0 mm 3 mps 702 mmHg 32%
    16:00 +11°C° 0 mm 3 mps 701 mmHg 32%
    17:00 +10°C° 0 mm 2 mps 702 mmHg 35%
    18:00 +9°C° 0 mm 2 mps 702 mmHg 38%
    19:00 +9°C° 0 mm 1 mps 702 mmHg 41%
    20:00 +9°C° 0 mm 1 mps 701 mmHg 41%
    21:00 +8°C° 0 mm 1 mps 701 mmHg 42%
    22:00 +8°C° 0 mm 1 mps 701 mmHg 42%
    23:00 +8°C° 0 mm 1 mps 700 mmHg 42%

    Tomorrow, 19 July, Friday

    Time Temperature Precipitation Wind Pressure Humidity
    00:00 +7°C° 0 mm 1 mps 699 mmHg 43%
    01:00 +6°C° 0 mm 0 mps 699 mmHg 44%
    02:00 +7°C° 0 mm 1 mps 698 mmHg 44%
    03:00 +6°C° 0 mm 1 mps 698 mmHg 44%
    04:00 +6°C° 0 mm 1 mps 697 mmHg 44%
    05:00 +6°C° 0 mm 1 mps 697 mmHg 44%
    06:00 +7°C° 0 mm 1 mps 697 mmHg 43%
    07:00 +7°C° 0 mm 1 mps 697 mmHg 43%
    08:00 +9°C° 0 mm 1 mps 697 mmHg 39%
    09:00 +10°C° 0 mm 2 mps 697 mmHg 34%
    10:00 +13°C° 0 mm 2 mps 697 mmHg 30%
    11:00 +13°C° 0 mm 3 mps 697 mmHg 29%
    12:00 +14°C° 0 mm 3 mps 696 mmHg 28%
    13:00 +16°C° 0 mm 3 mps 695 mmHg 27%
    14:00 +16°C° 0 mm 3 mps 695 mmHg 27%
    15:00 +16°C° 0 mm 2 mps 695 mmHg 28%
    16:00 +16°C° 0 mm 2 mps 695 mmHg 28%
    17:00 +15°C° 0 mm 2 mps 694 mmHg 31%
    18:00 +13°C° 0 mm 1 mps 694 mmHg 33%
    19:00 +12°C° 0 mm 1 mps 694 mmHg 36%
    20:00 +12°C° 0 mm 1 mps 694 mmHg 36%
    21:00 +12°C° 0 mm 2 mps 694 mmHg 36%
    22:00 +12°C° 0 mm 2 mps 694 mmHg 37%
    23:00 +10°C° 0 mm 2 mps 694 mmHg 38%

    Day after tomorrow, 20 July, Saturday

    Time Temperature Precipitation Wind Pressure Humidity
    00:00 +10°C° 0 mm 2 mps 694 mmHg 39%
    01:00 +10°C° 0 mm 2 mps 693 mmHg 40%
    02:00 +9°C° 0 mm 2 mps 693 mmHg 42%
    03:00 +9°C° 0 mm 2 mps 693 mmHg 44%
    04:00 +9°C° 0 mm 2 mps 693 mmHg 46%
    05:00 +9°C° 0 mm 2 mps 693 mmHg 49%
    06:00 +8°C° 0 mm 2 mps 692 mmHg 52%
    07:00 +8°C° 0 mm 2 mps 692 mmHg 55%
    08:00 +10°C° 0 mm 2 mps 693 mmHg 54%
    09:00 +13°C° 0 mm 2 mps 693 mmHg 53%
    10:00 +14°C° 0 mm 3 mps 693 mmHg 51%
    11:00 +16°C° 0 mm 2 mps 692 mmHg 51%
    12:00 +16°C° 0 mm 2 mps 691 mmHg 50%
    13:00 +18°C° 0 mm 1 mps 690 mmHg 50%
    14:00 +18°C° 0 mm 1 mps 690 mmHg 50%
    15:00 +18°C° 0 mm 1 mps 689 mmHg 50%
    16:00 +18°C° 0 mm 1 mps 689 mmHg 50%
    17:00 +16°C° 0 mm 2 mps 689 mmHg 52%
    18:00 +15°C° 0 mm 2 mps 689 mmHg 54%
    19:00 +14°C° 0 mm 2 mps 689 mmHg 56%
    20:00 +13°C° 0 mm 4 mps 689 mmHg 54%
    21:00 +12°C° 0 mm 5 mps 689 mmHg 52%
    22:00 +11°C° 0 mm 7 mps 689 mmHg 50%
    23:00 +11°C° 0 mm 7 mps 688 mmHg 49%

    21 July, Sunday

    Time Temperature Precipitation Wind Pressure Humidity
    00:00 +11°C° 0 mm 8 mps 688 mmHg 47%
    01:00 +12°C° 0 mm 9 mps 688 mmHg 46%
    02:00 +11°C° 0 mm 9 mps 688 mmHg 48%
    03:00 +11°C° 0 mm 9 mps 688 mmHg 50%
    04:00 +11°C° 0 mm 10 mps 688 mmHg 51%
    05:00 +10°C° 0 mm 8 mps 689 mmHg 48%
    06:00 +10°C° 0 mm 7 mps 690 mmHg 44%
    07:00 +10°C° 0 mm 5 mps 691 mmHg 40%
    08:00 +10°C° 0 mm 6 mps 691 mmHg 42%
    09:00 +11°C° 0 mm 6 mps 692 mmHg 44%
    10:00 +11°C° 0 mm 7 mps 693 mmHg 46%
    11:00 +11°C° 0 mm 6 mps 693 mmHg 43%
    12:00 +13°C° 0 mm 6 mps 692 mmHg 41%
    13:00 +13°C° 0 mm 6 mps 692 mmHg 38%
    14:00 +12°C° 0 mm 5 mps 692 mmHg 37%
    15:00 +10°C° 0 mm 5 mps 693 mmHg 36%
    16:00 +9°C° 0 mm 5 mps 693 mmHg 34%
    17:00 +8°C° 0 mm 4 mps 694 mmHg 34%
    18:00 +7°C° 0 mm 4 mps 695 mmHg 35%
    19:00 +7°C° 0 mm 3 mps 696 mmHg 35%
    20:00 +7°C° 0 mm 3 mps 697 mmHg 35%
    21:00 +5°C° 0 mm 3 mps 697 mmHg 34%
    22:00 +5°C° 0 mm 3 mps 698 mmHg 34%
    23:00 +4°C° 0 mm 3 mps 699 mmHg 41%

    22 July, Monday

    Time Temperature Precipitation Wind Pressure Humidity
    00:00 +4°C° 0 mm 3 mps 699 mmHg 47%
    01:00 +3°C° 0 mm 3 mps 699 mmHg 54%
    02:00 +3°C° 0 mm 3 mps 699 mmHg 56%
    03:00 +3°C° 0 mm 4 mps 699 mmHg 58%
    04:00 +3°C° 0 mm 4 mps 700 mmHg 61%
    05:00 +3°C° 0 mm 3 mps 700 mmHg 58%
    06:00 +3°C° 0 mm 3 mps 701 mmHg 54%
    07:00 +3°C° 0 mm 3 mps 701 mmHg 51%
    08:00 +4°C° 0 mm 3 mps 701 mmHg 47%
    09:00 +6°C° 0 mm 2 mps 701 mmHg 43%
    10:00 +7°C° 0 mm 2 mps 701 mmHg 38%
    11:00 +7°C° 0 mm 2 mps 700 mmHg 36%
    12:00 +8°C° 0 mm 3 mps 700 mmHg 34%
    13:00 +8°C° 0 mm 3 mps 699 mmHg 32%
    14:00 +8°C° 0 mm 3 mps 699 mmHg 32%
    15:00 +8°C° 0 mm 2 mps 699 mmHg 31%
    16:00 +8°C° 0 mm 2 mps 700 mmHg 30%
    17:00 +8°C° 0 mm 2 mps 700 mmHg 32%
    18:00 +7°C° 0 mm 2 mps 700 mmHg 34%
    19:00 +6°C° 0 mm 2 mps 701 mmHg 35%
    20:00 +6°C° 0 mm 1 mps 701 mmHg 36%
    21:00 +6°C° 0 mm 1 mps 701 mmHg 37%
    22:00 +5°C° 0 mm 1 mps 701 mmHg 38%
    23:00 +5°C° 0 mm 1 mps 701 mmHg 39%

    23 July, Tuesday

    Time Temperature Precipitation Wind Pressure Humidity
    00:00 +5°C° 0 mm 1 mps 701 mmHg 39%
    01:00 +4°C° 0 mm 2 mps 701 mmHg 40%
    02:00 +4°C° 0 mm 2 mps 702 mmHg 40%
    03:00 +3°C° 0 mm 2 mps 702 mmHg 40%
    04:00 +3°C° 0 mm 2 mps 702 mmHg 40%
    05:00 +3°C° 0 mm 2 mps 702 mmHg 40%
    06:00 +3°C° 0 mm 2 mps 703 mmHg 40%
    07:00 +3°C° 0 mm 2 mps 704 mmHg 40%
    08:00 +5°C° 0 mm 2 mps 704 mmHg 36%
    09:00 +7°C° 0 mm 2 mps 704 mmHg 32%
    10:00 +8°C° 0 mm 2 mps 704 mmHg 28%
    11:00 +9°C° 0 mm 2 mps 704 mmHg 27%
    12:00 +10°C° 0 mm 1 mps 703 mmHg 26%
    13:00 +11°C° 0 mm 1 mps 703 mmHg 25%
    14:00 +11°C° 0 mm 1 mps 703 mmHg 25%
    15:00 +11°C° 0 mm 1 mps 703 mmHg 25%
    16:00 +11°C° 0 mm 1 mps 703 mmHg 25%
    17:00 +10°C° 0 mm 1 mps 703 mmHg 27%
    18:00 +9°C° 0 mm 1 mps 704 mmHg 30%
    19:00 +8°C° 0 mm 1 mps 704 mmHg 33%
    20:00 +7°C° 0 mm 1 mps 704 mmHg 32%
    21:00 +7°C° 0 mm 1 mps 704 mmHg 32%
    22:00 +7°C° 0 mm 1 mps 704 mmHg 32%
    23:00 +7°C° 0 mm 1 mps 704 mmHg 32%
    Show more